Regional Weather Roundup
Issued by NWS

Home | Current Version | Previous Version | Text Only | Print | Product List | Glossary On
Versions: 1 2 3 4 5 6 7 8 9 10 11 12 13 14 15 16 17 18 19 20 21 22 23 24 25 26 27 28 29 30 31 32 33 34 35 36 37 38 39 40 41 42 43 44 45 46 47 48 49 50
000
ASUS43 KMPX 240510
RWRMN
WEATHER ROUNDUP FOR MINNESOTA
NATIONAL WEATHER SERVICE TWIN CITIES/CHANHASSEN MN
1200 AM CDT WED MAY 24 2017


NOTE: "FAIR" INDICATES FEW OR NO CLOUDS BELOW 12,000 FEET WITH NO
SIGNIFICANT WEATHER AND/OR OBSTRUCTIONS TO VISIBILITY. N/A MEANS
CURRENT SKY AND/OR WEATHER CONDITIONS ARE NOT AVAILABLE.

MNZ060>063-068>070-240600-
   Twin Cities Metro

CITY           SKY/WX    TMP DP  RH WIND       PRES   REMARKS
TWIN CITIES    PTCLDY    53  45  74 N10       29.82S
ST PAUL        PTCLDY    53  45  74 N13       29.82F
CRYSTAL        CLEAR     50  42  74 N9        29.82F
BLAINE         CLEAR     52  45  76 N7        29.83S
LAKEVILLE      CLOUDY    52  45  76 N10       29.80F
EDEN PRAIRIE   CLEAR     53  44  71 N8        29.80F
SOUTH ST PAUL  PTCLDY    53  44  71 N8        29.81S
LAKE ELMO      FAIR      50  45  81 N6        29.82F
$$
MNZ001>005-007-008-013>017-022>024-027-028-240600-
   Northwest Minnesota

CITY           SKY/WX    TMP DP  RH WIND       PRES   REMARKS
BEMIDJI        CLEAR     37  36  95 CALM      29.92F
HALLOCK        CLOUDY    45  39  81 S3        29.92F
ROSEAU         CLEAR     45  39  81 S3        29.93S
WARROAD        CLEAR     43  39  87 CALM      29.94S
THIEF RVR FALL CLEAR     45  43  93 CALM      29.94F
CROOKSTON      CLEAR     46  45  93 CALM      29.94F
FOSSTON        CLEAR     43  39  87 CALM      29.93S
DETROIT LAKES  MOCLDY    48  43  81 E6        29.91F
MOORHEAD       CLEAR     46  43  87 N7        29.93S
PARK RAPIDS    CLOUDY    51  41  68 N6        29.90F
MAHNOMEN       FAIR      42  40  93 CALM      29.92S
$$
MNZ006-009>011-018-025>026-240600-
   North Central Minnesota

CITY           SKY/WX    TMP DP  RH WIND       PRES   REMARKS
BAUDETTE       CLEAR     42  41  96 CALM      29.92F
FLAG ISLAND    CLEAR     52  45  76 SE5       29.91S
INTL FALLS     CLEAR     37  34  89 CALM      29.91F
WASKISH        CLEAR     43  41  93 CALM      29.92F
BIG FORK       CLEAR     37  36  93 CALM      29.91F
LONGVILLE      CLOUDY    50  45  81 N3        29.90S
GRAND RAPIDS   CLOUDY    49  43  80 N6        29.91F
CRANE LAKE     CLEAR     37  36  93 CALM      29.93S
ORR            CLEAR     39  36  87 CALM      29.89S
COOK           PTCLDY    43  39  87 CALM      29.90F
WALKER         FAIR      46  42  89 CALM      29.91S
$$
MNZ012-019>021-037-240600-
   Northeast Minnesota

CITY           SKY/WX    TMP DP  RH WIND       PRES   REMARKS
DULUTH         CLOUDY    48  46  93 NE5       29.88S
ELY            MOCLDY    48  39  71 NE3       29.90S
HIBBING        CLOUDY    49  42  77 N5        29.88F
EVELETH        CLOUDY    53  41  65 NE6       29.90S
DULUTH HARBOR  CLOUDY    46  45  93 CALM      29.90S
TWO HARBORS    CLOUDY    50  45  81 CALM      29.87F
SILVER BAY     CLOUDY    46  46 100 CALM      29.87F
GRAND MARAIS     N/A     46  45  96 CALM      29.89S
G MARAIS ARPRT CLOUDY    41  36  81 N5        29.90S
$$
MNZ029>031-032-039>041-046>048-054>057-064-240600-
   West Central Minnesota

CITY           SKY/WX    TMP DP  RH WIND       PRES   REMARKS
FERGUS FALLS   CLEAR     46  43  87 E3        29.89F
WHEATON        CLEAR     45  43  93 CALM      29.92F
MORRIS         CLEAR     46  45  93 NW6       29.89S
ALEXANDRIA     CLOUDY    49  45  86 NE7       29.90S
ELBOW LAKE     FAIR      48  44  87 E6        29.90F
WADENA         CLOUDY    48  45  87 NE3       29.90S
GLENWOOD       CLEAR     46  45  93 N8        29.89S
APPLETON       CLEAR     48  45  87 N5        29.88F
BENSON         PTCLDY    48  45  87 NE3       29.89F
ORTONVILLE     CLEAR     48  45  87 N7        29.90S
MADISON        CLEAR     52  48  87 N8        29.89S
WILLMAR        CLOUDY    52  46  82 N6        29.88S
$$
MNZ033>034-036-042>043-049>051-058-059-240600-
   Central Minnesota

CITY           SKY/WX    TMP DP  RH WIND       PRES   REMARKS
ST CLOUD       CLOUDY    51  46  83 N7        29.86F
SAUK CENTRE    MOCLDY    49  46  87 N6        29.88S
PAYNESVILLE    MOCLDY    49  50 100 N6        29.87S
AITKIN         CLOUDY    48  46  93 CALM      29.88S
PINE RIVER     CLOUDY    50  45  81 N5        29.93S
BRAINERD       CLOUDY    49  48  97 CALM      29.89F
STAPLES        CLOUDY    48  45  87 N5        29.89S
LONG PRAIRIE   CLOUDY    50  45  81 NW7       29.89F
LITTLE FALLS   CLOUDY    50  45  81 N3        29.89R
LITCHFIELD     PTCLDY    52  48  87 N6        29.86S
BUFFALO        PTCLDY    50  43  78 N10       29.85S
MAPLE LAKE     MOCLDY    52  46  79 NE8       29.86S
HUTCHINSON     CLOUDY    51  46  83 N6        29.86R
$$
MNZ037-044-045-052-053-240600-
   East Central Minnesota

CITY           SKY/WX    TMP DP  RH WIND       PRES   REMARKS
PRINCETON      CLOUDY    52  45  76 N10       29.86S
MORA           CLOUDY    45  41  87 CALM      29.89S
CAMBRIDGE      CLOUDY    52  43  71 N3        29.84S
RUSH CITY      CLOUDY    48  44  86 N6        29.86S
MOOSE LAKE     CLOUDY    46  43  87 NE6       29.87S
HINCKLEY       CLOUDY    46  45  93 N6        29.87F
CLOQUET        CLOUDY    46  43  87 CALM      29.89S
MCGREGOR       CLOUDY    46  46 100 CALM      29.89F
$$
MNZ071>073-080-081-089-090-097-098-240600-
   Southwest Minnesota

CITY           SKY/WX    TMP DP  RH WIND       PRES   REMARKS
MONTEVIDEO     CLEAR     48  46  93 NE6       29.87F
CANBY          CLEAR     49  47  92 CALM      29.89F
MARSHALL       MOCLDY    51  47  86 N8        29.87F
REDWOOD FALLS  PTCLDY    52  45  77 N7        29.84F
OLIVIA         PTCLDY    50  45  81 N7        29.85S
PIPESTONE      MOCLDY    48  43  81 N3        29.87S
WINDOM         MOCLDY    50  46  87 NW13      29.84S
WORTHINGTON    CLEAR     46  44  93 NW9       29.85F
JACKSON        CLOUDY    46  45  93 NW8       29.83F
TRACY          CLOUDY    51  49  91 N8        29.86F
SLAYTON        PTCLDY    47  45  92 NW10      29.86F
$$
MNZ065>067-074>077-082>085-091>093-240600-
   South Central Minnesota

CITY           SKY/WX    TMP DP  RH WIND       PRES   REMARKS
NEW ULM        MOCLDY    50  45  81 N5        29.83S
ST JAMES       CLOUDY    52  46  82 NW10      29.82F
FAIRMONT       LGT RAIN  51  48  89 N10       29.81F
GLENCOE        CLEAR     50  48  93 N6        29.83S
FARIBAULT      CLOUDY    54  46  76 N9        29.80S
OWATONNA       CLOUDY    52  46  82 N9        29.79S
WASECA         CLOUDY    52  46  82 N12       29.80S
ALBERT LEA     CLOUDY    52  52 100 N8        29.77F
$$
MNZ078>079-086>088-094>096-240600-
   Southeast Minnesota

CITY           SKY/WX    TMP DP  RH WIND       PRES   REMARKS
ROCHESTER      CLOUDY    50  49  96 N15       29.76F
RED WING       CLOUDY    54  45  71 NE3       29.78S
STANTON        CLOUDY    54  47  77 N13       29.78S
DODGE CENTER   MOCLDY    48  46  93 N8        29.77F
WINONA         CLOUDY    54  46  76 E6        29.76S
AUSTIN         CLOUDY    52  48  87 N7        29.75F
PRESTON        CLOUDY    49  46  88 N7        29.75S
$$
ABBREVIATIONS USED IN REMARKS
   TC - TEMPERATURES IN CELSIUS
  WCI - WIND CHILL INDEX
   HX - HEAT INDEX
  VSB - VISIBILITY
$$



USA.gov is the U.S. government's official web portal to all federal, state and local government web resources and services.